Weather History for Crestview, FL

Change the Weather History Date:

Monday, April 1, 2013

  Actual Average Record
Temperature  
Mean Temperature 65 °F -  
Max Temperature 76 °F - - ()
Min Temperature 52 °F - - ()
Growing Degree Days 15 (Base 50)    
Moisture  
Dew Point 57 °F    
Average Humidity 76    
Maximum Humidity 100    
Minimum Humidity 46    
Precipitation  
Precipitation 0.00 in - - ()
Sea Level Pressure  
Sea Level Pressure 30.00 in    
Wind  
Wind Speed 7 mph (WNW)    
Max Wind Speed 14 mph    
Max Gust Speed 18 mph    
Visibility 10 miles    
Events      
T = Trace of Precipitation, MM = Missing Value Source: NWS Daily Summary

Daily Weather History Graph

Daily Weather History Graph

Search for Another Location

Airport:

Trip Planner

Search our weather history database for the weather conditions in past years. The results will help you decide how hot, cold, wet, or windy it might be!

Date:

Astronomy

Apr. 01, 2013 Rise Set
Actual Time 6:34 AM CDT 7:05 PM CDT
Civil Twilight 6:10 AM CDT 7:29 PM CDT
Nautical Twilight 5:42 AM CDT 7:58 PM CDT
Astronomical Twilight 5:13 AM CDT 8:26 PM CDT
Moon No Moon Rise 10:38 AM CDT (4/1)
Length of Visible Light 13h 18m
Length of Day
12h 30m
Waning Gibbous, 67% of the Moon is Illuminated
Apr 1
Waning Gibbous
Apr 2
Last Quarter
Apr 10
New
Apr 18
First Quarter
Apr 25
Full

Hourly Weather History & Observations

Time (CDT) Temp. Dew Point Humidity Pressure Visibility Wind Dir Wind Speed Gust Speed Precip Events Conditions
12:58 AM 66.6 °F 64.9 °F 95% 29.92 in 10.0 mi SSW 8.1 mph - N/A   Scattered Clouds
1:58 AM 66.0 °F 64.6 °F 95% 29.94 in 10.0 mi SSW 8.1 mph - N/A   Clear
2:58 AM 65.7 °F 64.2 °F 95% 29.94 in 10.0 mi SSW 5.8 mph - N/A   Mostly Cloudy
3:58 AM 64.2 °F 63.7 °F 98% 29.94 in 10.0 mi SW 4.6 mph - N/A   Clear
4:58 AM 63.0 °F 62.4 °F 98% 29.95 in 10.0 mi West 4.6 mph - N/A   Partly Cloudy
5:08 AM 62.6 °F 62.6 °F 100% 29.95 in 10.0 mi WNW 5.8 mph - N/A   Mostly Cloudy
5:23 AM 62.6 °F 62.6 °F 100% 29.95 in 10.0 mi WNW 4.6 mph - N/A   Scattered Clouds
5:58 AM 61.5 °F 61.2 °F 99% 29.98 in 10.0 mi West 4.6 mph - N/A   Clear
6:58 AM 60.1 °F 59.9 °F 99% 30.00 in 10.0 mi West 8.1 mph - N/A   Clear
7:58 AM 61.7 °F 58.5 °F 89% 30.02 in 10.0 mi West 8.1 mph - N/A   Clear
8:55 AM 64.4 °F 57.2 °F 77% 30.03 in 10.0 mi WNW 11.5 mph - N/A   Partly Cloudy
9:55 AM 67.3 °F 56.5 °F 68% 30.03 in 10.0 mi NNW 11.5 mph - N/A   Partly Cloudy
10:55 AM 70.5 °F 55.9 °F 60% 30.03 in 10.0 mi NW 13.8 mph 18.4 mph N/A   Partly Cloudy
11:55 AM 72.1 °F 56.1 °F 57% 30.04 in 10.0 mi NNW 12.7 mph 18.4 mph N/A   Partly Cloudy
12:55 PM 73.2 °F 56.3 °F 55% 30.04 in 10.0 mi NNW 12.7 mph 17.3 mph N/A   Partly Cloudy
1:55 PM 73.2 °F 56.3 °F 55% 30.02 in 10.0 mi NW 10.4 mph - N/A   Partly Cloudy
2:55 PM 74.1 °F 56.3 °F 54% 30.01 in 10.0 mi North 9.2 mph - N/A   Partly Cloudy
3:55 PM 75.4 °F 55.8 °F 50% 29.98 in 10.0 mi WNW 6.9 mph - N/A   Partly Cloudy
4:55 PM 76.1 °F 54.0 °F 46% 29.98 in 10.0 mi NNW 10.4 mph - N/A   Partly Cloudy
5:55 PM 75.0 °F 53.1 °F 46% 29.99 in 10.0 mi NNW 8.1 mph - N/A   Partly Cloudy
6:55 PM 71.4 °F 51.8 °F 50% 29.99 in 10.0 mi NW 6.9 mph - N/A   Clear
7:55 PM 66.7 °F 53.2 °F 62% 30.01 in 10.0 mi NW 5.8 mph - N/A   Clear
8:55 PM 62.4 °F 52.2 °F 69% 30.03 in 10.0 mi NW 3.5 mph - N/A   Clear
9:55 PM 57.0 °F 51.4 °F 82% 30.03 in 10.0 mi NNW 2.3 mph - N/A   Clear
10:55 PM 54.1 °F 50.9 °F 89% 30.04 in 10.0 mi Calm Calm - N/A   Clear
11:55 PM 52.3 °F 50.0 °F 92% 30.06 in 10.0 mi NNW 2.3 mph - N/A   Clear